Lexington Weather

Lexington, Massachusetts, USA

24°F
1/21/2021 9:41am 
  • Lexington Conditions: Clear
  • Temperature: 24.3°F / -4.3°CWarmer 2.4°F than last hour.
  • Dew Point: 13.1°FIncreased 1.4°Fsince last hour.
  • Relative Humidity: 62%Decreased 2.0% since last hour.
  • Wind: Calm, 10-min avg: Calm, gust: 6 mph
  • Barometer: 29.77 inFalling 0.02  inHg/hr Falling Slowly
  • Visibility: 10 miles
  • Snow Today: Trace
  •   

Regional Weather Roundup
for Boston / Norton, MA

        
000
ASUS41 KBOX 152305
RWRBOX

REGIONAL WEATHER ROUNDUP
NATIONAL WEATHER SERVICE BOSTON/NORTON MA
600 PM EST FRI JAN 15 2021

NOTE:  "FAIR" INDICATES FEW OR NO CLOUDS BELOW 12,000 FEET WITH NO 
SIGNIFICANT WEATHER AND/OR OBSTRUCTIONS TO VISIBILITY.

MAZALL-160000-
EASTERN MASSACHUSETTS
  
CITY           SKY/WX    TMP DP  RH WIND       PRES   REMARKS
BOSTON         CLOUDY    38  30  73 E10       30.09R WCI  31          
BEVERLY        MOCLDY    37  28  70 E3        30.07S                  
LAWRENCE       MOCLDY    36  31  82 CALM      30.09R                  
BEDFORD        MOCLDY    34  28  79 CALM      30.07R                  
BLUE HILL        N/A     36  27  69 E8        30.05R WCI  30          
NORWOOD        MOCLDY    35  28  75 CALM      30.08R                  
MARSHFIELD     MOCLDY    41  34  75 E6        30.07R                  
PLYMOUTH       MOCLDY    34  27  75 NE3       30.06S                  
TAUNTON        MOCLDY    37  28  70 CALM      30.06S                  
NEW BEDFORD    MOCLDY    37  29  72 NE5       30.06R                  
$$

MAZALL-160000-
CAPE COD AND THE ISLANDS
  
CITY           SKY/WX    TMP DP  RH WIND       PRES   REMARKS
FALMOUTH       CLEAR     36  28  75 E5        30.07S WCI  32          
HYANNIS        PTCLDY    35  27  72 CALM      30.06R                  
CHATHAM        MOCLDY    40  31  70 E3        30.07S                  
PROVINCETOWN   MOCLDY    37  33  85 E5        30.08S                  
NANTUCKET      PTCLDY    38  29  70 E7        30.06R                  
MARTHAS VNYRD  PTCLDY    39  32  76 E7        30.06S                  
$$
 
MAZALL-160000-
CENTRAL AND WESTERN MASSACHUSETTS
  
CITY           SKY/WX    TMP DP  RH WIND       PRES   REMARKS
WORCESTER      CLOUDY    36  27  69 E10       30.03R WCI  28          
FITCHBURG      CLOUDY    38  30  73 E7        30.08R                  
ORANGE         CLOUDY    37  30  75 E8        30.05R WCI  31          
SPRINGFIELD    CLOUDY    39  31  72 E6        30.02R                  
WESTFIELD      CLOUDY    35  33  92 N6        30.03R WCI  30          
NORTH ADAMS    CLOUDY    38  29  70 E9        30.00R WCI  31          
PITTSFIELD     CLOUDY    35  30  82 E6        29.97R WCI  30          
$$
 
RIZALL-160000-
RHODE ISLAND
  
CITY           SKY/WX    TMP DP  RH WIND       PRES   REMARKS
PROVIDENCE     MOCLDY    40  30  67 E9        30.06R                  
NEWPORT        MOCLDY    38  30  73 E7        30.05R                  
BLOCK ISLAND   CLOUDY    41  34  76 E15       30.04R                  
SMITHFIELD     CLOUDY    38  31  76 E8        30.05R                  
WESTERLY       CLOUDY    40  31  70 E13G21    30.03R                  
$$
 
CTZALL-160000-
CONNECTICUT
  
CITY           SKY/WX    TMP DP  RH WIND       PRES   REMARKS
BRADLEY INTL   CLOUDY    40  32  73 E6        30.02R                  
HARTFORD       CLOUDY    43  31  62 E6        30.02R                  
BRIDGEPORT     NOT AVBL                                               
DANBURY        CLOUDY    40  34  79 E12       29.98R                  
GROTON         CLOUDY    43  34  70 E10G23    30.04R                  
NEW HAVEN      CLOUDY    44  37  76 E16G23    30.00R                  
CHESTER        CLOUDY    41  36  81 E8G18     30.02R                  
MERIDEN        CLOUDY    42  32  67 E7        30.02R                  
WILLIMANTIC    CLOUDY    41  30  65 VRB5      30.05R                  
OXFORD         CLOUDY    39  35  86 E12       29.98R WCI  32          
$$

MEZ002-015-021-024-NHZ003-005-008-011-012-014-VTZ005-008-160000-
NORTHERN NEW ENGLAND
  
CITY           SKY/WX    TMP DP  RH WIND       PRES   REMARKS
PORTLAND ME    CLOUDY    37  30  75 E12       30.09S WCI  29          
BANGOR ME      PTCLDY    25  19  78 CALM      30.13R                  
CONCORD NH     MOCLDY    35  25  66 CALM      30.06S                  
MANCHESTER NH  CLOUDY    37  28  70 CALM      30.07R                  
NASHUA NH      MOCLDY    35  32  88 CALM      30.09R                  
PORTSMOUTH NH  CLOUDY    38  28  68 E7        30.06F                  
JAFFREY NH     CLOUDY    36  27  69 VRB5      30.03R                  
KEENE NH       CLOUDY    38  28  67 S6        30.06R                  
BURLINGTON VT  CLOUDY    36  25  64 S6        29.98R WCI  31          
MT. WASHINGTON MOCLDY    25   1  36 S20         N/A  WCI  11          
$$

NYZ052-076-160000-
EASTERN NEW YORK
  
CITY           SKY/WX    TMP DP  RH WIND       PRES   REMARKS
ALBANY         CLOUDY    37  30  75 SE5       29.99R                  
NEW YORK CITY  CLOUDY    47  39  74 E21G28    29.93F                  
$$
 
ANZALL-160000-
MARINE OBSERVATIONS
  
STATION/POSITION TIME  TEMP    WIND        PRES    VSBY  WAVE
                       AIR SEA DIR/SP/G                  HT/PER
                 (UTC) (F)     (DEG/KT/KT) (MB)    (MI)  (FT/S)
BOSTON BUOY      2250   41 43   90/ 12/ 14 1019.1R         2/ 4
BUZZARDS BAY     2200           90/ 17/ 19 1018.2R
NANTUCKET SOUND  2250      41   70/  8/ 10   N/A           1/ 2
MASS BAY-STELLWA 2204   41      80/ 10/ 12 1017.7R  1 7/8  2/ 6
ISLE OF SHOALS   2200   39      80/ 17/ 18 1017.9S
S OF BLOCK IS    2226      47                N/A           4/ 4
$$

......................KEY.........................
  SKY/WX - SKY CONDITION/PRESENT WEATHER
  TMP    - TEMPERATURE IN FAHRENHEIT
  DWPT   - DEWPOINT IN FAHRENHEIT
  RH     - RELATIVE HUMIDITY IN PERCENT
  WIND   - DIRECTION AND SPEED IN MPH
  PRES   - MEAN SEA LEVEL PRESSURE IN INCHES OF HG
  WCI    - WIND CHILL INDEX
  VSB    - VISIBILITY IN MILES
  HX     - HEAT INDEX
  TC     - TEMPERATURE IN CELSIUS
  VRB    - VARIABLE WIND DIRECTION
  N/A    - NOT AVAILABLE
  
      

Other recent Regional Weather Roundups

Thu Jan 21, 9:04am

Thu Jan 21, 7:04am

Thu Jan 21, 6:04am

Thu Jan 21, 5:04am

Thu Jan 21, 4:04am

Thu Jan 21, 3:04am

Thu Jan 21, 2:04am

Thu Jan 21, 1:04am

Thu Jan 21, 12:04am

Wed Jan 20, 11:04pm

Wed Jan 20, 10:05pm

Wed Jan 20, 9:04pm

Wed Jan 20, 8:04pm

Wed Jan 20, 7:04pm

Wed Jan 20, 6:05pm

Wed Jan 20, 5:05pm

Wed Jan 20, 1:04pm

Wed Jan 20, 12:04pm

Wed Jan 20, 11:04am

Wed Jan 20, 10:04am

Wed Jan 20, 9:05am

Wed Jan 20, 8:04am

Wed Jan 20, 7:04am

Wed Jan 20, 6:04am

Wed Jan 20, 5:04am

Wed Jan 20, 4:04am

Wed Jan 20, 3:05am

Wed Jan 20, 2:04am

Wed Jan 20, 1:04am

Wed Jan 20, 12:04am

Tue Jan 19, 11:04pm

Tue Jan 19, 10:04pm

Tue Jan 19, 9:04pm

Tue Jan 19, 8:04pm

Tue Jan 19, 7:04pm

Tue Jan 19, 6:05pm

Tue Jan 19, 5:04pm

Tue Jan 19, 4:05pm

Tue Jan 19, 3:04pm

Tue Jan 19, 2:04pm

Tue Jan 19, 1:04pm

Tue Jan 19, 12:05pm

Tue Jan 19, 11:04am

Tue Jan 19, 10:05am

Tue Jan 19, 9:04am

Tue Jan 19, 8:04am

Tue Jan 19, 7:04am

Tue Jan 19, 6:04am

Tue Jan 19, 5:04am

Tue Jan 19, 4:04am

Tue Jan 19, 3:04am

Tue Jan 19, 2:04am

Tue Jan 19, 1:04am

Tue Jan 19, 12:04am

Mon Jan 18, 11:04pm

Mon Jan 18, 10:04pm

Mon Jan 18, 9:04pm

Mon Jan 18, 8:05pm

Mon Jan 18, 7:04pm

Mon Jan 18, 6:05pm

Mon Jan 18, 5:04pm

Mon Jan 18, 4:04pm

Mon Jan 18, 3:04pm

Mon Jan 18, 2:04pm

Mon Jan 18, 1:04pm

Mon Jan 18, 12:04pm

Mon Jan 18, 11:04am

Mon Jan 18, 10:04am

Mon Jan 18, 9:04am

Mon Jan 18, 8:04am

Mon Jan 18, 7:04am

Mon Jan 18, 6:04am

Mon Jan 18, 5:04am

Mon Jan 18, 4:04am

Mon Jan 18, 3:04am

Mon Jan 18, 2:04am

Mon Jan 18, 1:04am

Mon Jan 18, 12:04am

Sun Jan 17, 11:04pm

Sun Jan 17, 10:04pm

Sun Jan 17, 9:04pm

Sun Jan 17, 8:04pm

Sun Jan 17, 7:04pm

Sun Jan 17, 6:04pm

Sun Jan 17, 5:04pm

Sun Jan 17, 4:05pm

Sun Jan 17, 3:04pm

Sun Jan 17, 2:04pm

Sun Jan 17, 1:04pm

Sun Jan 17, 12:04pm

Sun Jan 17, 11:04am

Sun Jan 17, 10:04am

Sun Jan 17, 9:04am

Sun Jan 17, 8:04am

Sun Jan 17, 7:04am

Sun Jan 17, 6:04am

Sun Jan 17, 5:04am

Sun Jan 17, 4:04am

Sun Jan 17, 3:04am

Sun Jan 17, 2:04am

Sun Jan 17, 1:04am

Sun Jan 17, 12:04am

Sat Jan 16, 11:05pm

Sat Jan 16, 10:04pm

Sat Jan 16, 9:04pm

Sat Jan 16, 8:05pm

Sat Jan 16, 7:04pm

Sat Jan 16, 6:04pm

Sat Jan 16, 5:05pm

Sat Jan 16, 4:05pm

Sat Jan 16, 3:05pm

Sat Jan 16, 2:04pm

Sat Jan 16, 1:04pm

Sat Jan 16, 12:04pm

Sat Jan 16, 11:04am

Sat Jan 16, 10:05am

Sat Jan 16, 9:04am

Sat Jan 16, 8:04am

Sat Jan 16, 7:04am

Sat Jan 16, 6:04am

Sat Jan 16, 5:04am

Sat Jan 16, 4:04am

Sat Jan 16, 3:05am

Sat Jan 16, 2:04am

Sat Jan 16, 1:04am

Sat Jan 16, 12:05am

Fri Jan 15, 11:05pm

Fri Jan 15, 10:04pm

Fri Jan 15, 9:04pm

Fri Jan 15, 8:04pm

Fri Jan 15, 7:05pm

Fri Jan 15, 5:05pm

Fri Jan 15, 4:05pm

Fri Jan 15, 3:04pm

Fri Jan 15, 2:05pm

Fri Jan 15, 1:04pm

Fri Jan 15, 12:05pm

Fri Jan 15, 11:04am

Fri Jan 15, 10:04am

Fri Jan 15, 9:05am

Fri Jan 15, 8:04am

Fri Jan 15, 7:04am

Fri Jan 15, 6:04am

Fri Jan 15, 5:05am

Fri Jan 15, 4:04am

Fri Jan 15, 3:04am

Fri Jan 15, 2:04am

Fri Jan 15, 1:04am

Fri Jan 15, 12:05am

Thu Jan 14, 11:04pm

Thu Jan 14, 10:04pm

Thu Jan 14, 9:04pm

Thu Jan 14, 8:05pm

Thu Jan 14, 7:04pm

Thu Jan 14, 6:04pm

Thu Jan 14, 5:04pm

Thu Jan 14, 4:05pm

Thu Jan 14, 3:04pm

Thu Jan 14, 2:04pm

Thu Jan 14, 1:04pm

Thu Jan 14, 12:05pm

Thu Jan 14, 11:05am

Thu Jan 14, 10:04am

Thu Jan 14, 9:04am

Thu Jan 14, 8:04am

Thu Jan 14, 7:04am

Thu Jan 14, 6:04am

Thu Jan 14, 5:04am

Thu Jan 14, 4:04am

Thu Jan 14, 3:04am

Thu Jan 14, 2:04am

Thu Jan 14, 1:04am

Thu Jan 14, 12:04am

Wed Jan 13, 11:04pm

Wed Jan 13, 10:04pm

Wed Jan 13, 9:04pm

Wed Jan 13, 8:05pm

Wed Jan 13, 7:04pm

Wed Jan 13, 6:04pm

Wed Jan 13, 5:04pm

Wed Jan 13, 4:04pm

Wed Jan 13, 3:05pm

Wed Jan 13, 2:04pm

Wed Jan 13, 1:04pm

Wed Jan 13, 12:04pm

Wed Jan 13, 11:04am

Wed Jan 13, 10:04am

Wed Jan 13, 9:05am

Wed Jan 13, 8:04am

Wed Jan 13, 7:04am

Wed Jan 13, 6:04am

Wed Jan 13, 5:04am

Wed Jan 13, 4:04am

Wed Jan 13, 3:04am

Wed Jan 13, 2:04am

Wed Jan 13, 1:04am

Wed Jan 13, 12:05am

Tue Jan 12, 11:04pm

Tue Jan 12, 10:04pm

Tue Jan 12, 9:04pm

Tue Jan 12, 8:05pm

Tue Jan 12, 7:04pm

Meta data:

ID: 66d68321-66a4-48fa-8591-07b8e69b6daf
Link: https://api.weather.gov/products/66d68321-66a4-48fa-8591-07b8e69b6daf